Year,Month,Day,Hour,Minute,Value (Times are PST for windgust in km/hr)
2019,04,07,00,00,11.30
2019,04,07,00,01,11.30
2019,04,07,00,02,6.40
2019,04,07,00,03,8.10
2019,04,07,00,04,9.60
2019,04,07,00,05,3.20
2019,04,07,00,06,6.40
2019,04,07,00,07,8.10
2019,04,07,00,08,6.40
2019,04,07,00,09,6.40
2019,04,07,00,10,6.40
2019,04,07,00,11,8.10
2019,04,07,00,12,6.40
2019,04,07,00,13,6.40
2019,04,07,00,14,3.20
2019,04,07,00,15,6.40
2019,04,07,00,16,4.80
2019,04,07,00,17,8.10
2019,04,07,00,18,9.60
2019,04,07,00,19,11.30
2019,04,07,00,20,14.50
2019,04,07,00,21,12.90
2019,04,07,00,22,9.60
2019,04,07,00,23,8.10
2019,04,07,00,24,8.10
2019,04,07,00,25,8.10
2019,04,07,00,26,8.10
2019,04,07,00,27,8.10
2019,04,07,00,28,8.10
2019,04,07,00,29,11.30
2019,04,07,00,30,16.10
2019,04,07,00,31,16.10
2019,04,07,00,32,14.50
2019,04,07,00,33,12.90
2019,04,07,00,34,3.20
2019,04,07,00,35,8.10
2019,04,07,00,36,6.40
2019,04,07,00,37,3.20
2019,04,07,00,38,6.40
2019,04,07,00,39,6.40
2019,04,07,00,40,6.40
2019,04,07,00,41,3.20
2019,04,07,00,42,6.40
2019,04,07,00,43,8.10
2019,04,07,00,44,3.20
2019,04,07,00,45,1.60
2019,04,07,00,46,6.40
2019,04,07,00,47,3.20
2019,04,07,00,48,1.60
2019,04,07,00,49,6.40
2019,04,07,00,50,6.40
2019,04,07,00,51,6.40
2019,04,07,00,52,3.20
2019,04,07,00,53,6.40
2019,04,07,00,54,3.20
2019,04,07,00,55,3.20
2019,04,07,00,56,8.10
2019,04,07,00,57,1.60
2019,04,07,00,58,8.10
2019,04,07,00,59,6.40
2019,04,07,01,00,8.10
2019,04,07,01,01,6.40
2019,04,07,01,02,6.40
2019,04,07,01,03,8.10
2019,04,07,01,04,6.40
2019,04,07,01,05,6.40
2019,04,07,01,06,3.20
2019,04,07,01,07,1.60
2019,04,07,01,08,4.80
2019,04,07,01,09,4.80
2019,04,07,01,10,6.40
2019,04,07,01,11,4.80
2019,04,07,01,12,4.80
2019,04,07,01,13,4.80
2019,04,07,01,14,4.80
2019,04,07,01,15,4.80
2019,04,07,01,16,4.80
2019,04,07,01,17,6.40
2019,04,07,01,18,6.40
2019,04,07,01,19,8.10
2019,04,07,01,20,8.10
2019,04,07,01,21,8.10
2019,04,07,01,22,8.10
2019,04,07,01,23,6.40
2019,04,07,01,24,11.30
2019,04,07,01,25,9.60
2019,04,07,01,26,9.60
2019,04,07,01,27,11.30
2019,04,07,01,28,14.50
2019,04,07,01,29,12.90
2019,04,07,01,30,12.90
2019,04,07,01,31,12.90
2019,04,07,01,32,16.10
2019,04,07,01,33,9.60
2019,04,07,01,34,11.30
2019,04,07,01,35,11.30
2019,04,07,01,36,9.60
2019,04,07,01,37,11.30
2019,04,07,01,38,9.60
2019,04,07,01,39,11.30
2019,04,07,01,40,9.60
2019,04,07,01,41,8.10
2019,04,07,01,42,4.80
2019,04,07,01,43,6.40
2019,04,07,01,44,4.80
2019,04,07,01,45,4.80
2019,04,07,01,46,6.40
2019,04,07,01,47,6.40
2019,04,07,01,48,4.80
2019,04,07,01,49,4.80
2019,04,07,01,50,4.80
2019,04,07,01,51,3.20
2019,04,07,01,54,1.60
2019,04,07,01,55,3.20
2019,04,07,01,56,1.60
2019,04,07,01,57,3.20
2019,04,07,01,58,1.60
2019,04,07,02,04,1.60
2019,04,07,02,05,1.60
2019,04,07,02,06,1.60
2019,04,07,02,35,3.20
2019,04,07,02,36,3.20
2019,04,07,02,37,1.60
2019,04,07,02,40,1.60
2019,04,07,03,00,3.20
2019,04,07,03,01,1.60
2019,04,07,03,02,3.20
2019,04,07,03,03,3.20
2019,04,07,03,04,6.40
2019,04,07,03,05,6.40
2019,04,07,03,06,6.40
2019,04,07,03,07,8.10
2019,04,07,03,08,8.10
2019,04,07,03,09,11.30
2019,04,07,03,10,9.60
2019,04,07,03,11,6.40
2019,04,07,03,12,8.10
2019,04,07,03,13,6.40
2019,04,07,03,14,3.20
2019,04,07,03,15,6.40
2019,04,07,03,16,3.20
2019,04,07,03,17,6.40
2019,04,07,03,18,3.20
2019,04,07,03,19,3.20
2019,04,07,03,20,6.40
2019,04,07,03,21,9.60
2019,04,07,03,22,6.40
2019,04,07,03,23,6.40
2019,04,07,03,24,3.20
2019,04,07,03,25,3.20
2019,04,07,03,26,3.20
2019,04,07,03,27,6.40
2019,04,07,03,28,8.10
2019,04,07,03,29,6.40
2019,04,07,03,30,6.40
2019,04,07,03,31,6.40
2019,04,07,03,32,8.10
2019,04,07,03,33,6.40
2019,04,07,03,34,3.20
2019,04,07,03,36,6.40
2019,04,07,03,37,6.40
2019,04,07,03,38,6.40
2019,04,07,03,39,6.40
2019,04,07,03,40,8.10
2019,04,07,03,41,9.60
2019,04,07,03,42,6.40
2019,04,07,03,43,9.60
2019,04,07,03,44,8.10
2019,04,07,03,45,8.10
2019,04,07,03,46,8.10
2019,04,07,03,47,9.60
2019,04,07,03,48,8.10
2019,04,07,03,49,6.40
2019,04,07,03,50,8.10
2019,04,07,03,51,6.40
2019,04,07,03,52,8.10
2019,04,07,03,53,9.60
2019,04,07,03,54,6.40
2019,04,07,03,55,6.40
2019,04,07,03,56,8.10
2019,04,07,03,57,6.40
2019,04,07,03,58,8.10
2019,04,07,03,59,8.10
2019,04,07,04,00,8.10
2019,04,07,04,01,6.40
2019,04,07,04,02,1.60
2019,04,07,04,03,3.20
2019,04,07,04,04,6.40
2019,04,07,04,05,6.40
2019,04,07,04,06,3.20
2019,04,07,04,07,3.20
2019,04,07,04,08,3.20
2019,04,07,04,09,3.20
2019,04,07,04,12,1.60
2019,04,07,04,13,1.60
2019,04,07,04,14,1.60
2019,04,07,04,15,1.60
2019,04,07,04,23,1.60
2019,04,07,04,24,1.60
2019,04,07,04,25,1.60
2019,04,07,04,39,1.60
2019,04,07,04,40,1.60
2019,04,07,04,41,1.60
2019,04,07,04,42,3.20
2019,04,07,04,43,3.20
2019,04,07,04,44,3.20
2019,04,07,04,45,3.20
2019,04,07,04,46,6.40
2019,04,07,04,47,3.20
2019,04,07,04,48,3.20
2019,04,07,04,49,3.20
2019,04,07,04,50,3.20
2019,04,07,04,51,3.20
2019,04,07,04,52,1.60
2019,04,07,04,53,1.60
2019,04,07,04,54,1.60
2019,04,07,04,55,3.20
2019,04,07,04,56,3.20
2019,04,07,04,57,3.20
2019,04,07,04,58,3.20
2019,04,07,04,59,3.20
2019,04,07,05,00,3.20
2019,04,07,05,01,3.20
2019,04,07,05,02,3.20
2019,04,07,05,27,3.20
2019,04,07,05,28,3.20
2019,04,07,05,29,1.60
2019,04,07,05,30,1.60
2019,04,07,05,31,1.60
2019,04,07,05,52,1.60
2019,04,07,05,56,1.60
2019,04,07,06,06,1.60
2019,04,07,06,07,1.60
2019,04,07,06,08,1.60
2019,04,07,06,11,1.60
2019,04,07,06,19,3.20
2019,04,07,06,20,1.60
2019,04,07,06,21,1.60
2019,04,07,06,22,3.20
2019,04,07,06,23,3.20
2019,04,07,06,24,3.20
2019,04,07,06,25,6.40
2019,04,07,06,26,3.20
2019,04,07,06,27,3.20
2019,04,07,06,28,3.20
2019,04,07,06,29,3.20
2019,04,07,06,30,3.20
2019,04,07,06,31,3.20
2019,04,07,06,32,1.60
2019,04,07,06,33,3.20
2019,04,07,06,34,3.20
2019,04,07,06,35,3.20
2019,04,07,06,36,4.80
2019,04,07,06,37,3.20
2019,04,07,06,38,3.20
2019,04,07,06,39,4.80
2019,04,07,06,40,3.20
2019,04,07,06,41,3.20
2019,04,07,06,42,4.80
2019,04,07,06,43,3.20
2019,04,07,06,44,3.20
2019,04,07,06,45,4.80
2019,04,07,06,46,4.80
2019,04,07,06,47,3.20
2019,04,07,06,48,1.60
2019,04,07,06,49,1.60
2019,04,07,06,50,3.20
2019,04,07,06,51,4.80
2019,04,07,06,52,3.20
2019,04,07,06,53,1.60
2019,04,07,06,54,3.20
2019,04,07,06,55,3.20
2019,04,07,06,56,6.40
2019,04,07,06,57,4.80
2019,04,07,06,58,6.40
2019,04,07,06,59,8.10
2019,04,07,07,00,4.80
2019,04,07,07,01,6.40
2019,04,07,07,02,6.40
2019,04,07,07,03,6.40
2019,04,07,07,04,6.40
2019,04,07,07,05,9.60
2019,04,07,07,06,11.30
2019,04,07,07,07,8.10
2019,04,07,07,08,6.40
2019,04,07,07,09,8.10
2019,04,07,07,10,6.40
2019,04,07,07,11,8.10
2019,04,07,07,12,6.40
2019,04,07,07,13,6.40
2019,04,07,07,14,8.10
2019,04,07,07,15,3.20
2019,04,07,07,16,3.20
2019,04,07,07,17,3.20
2019,04,07,07,18,3.20
2019,04,07,07,19,3.20
2019,04,07,07,20,1.60
2019,04,07,07,21,1.60
2019,04,07,07,22,1.60
2019,04,07,07,23,1.60
2019,04,07,07,24,3.20
2019,04,07,07,25,6.40
2019,04,07,07,26,8.10
2019,04,07,07,27,3.20
2019,04,07,07,28,1.60
2019,04,07,07,29,4.80
2019,04,07,07,30,1.60
2019,04,07,07,31,3.20
2019,04,07,07,33,4.80
2019,04,07,07,34,6.40
2019,04,07,07,35,3.20
2019,04,07,07,36,4.80
2019,04,07,07,37,6.40
2019,04,07,07,38,8.10
2019,04,07,07,39,1.60
2019,04,07,07,41,6.40
2019,04,07,07,42,1.60
2019,04,07,07,43,1.60
2019,04,07,07,44,1.60
2019,04,07,07,45,1.60
2019,04,07,07,46,4.80
2019,04,07,07,47,4.80
2019,04,07,07,48,6.40
2019,04,07,07,49,4.80
2019,04,07,07,50,4.80
2019,04,07,07,51,6.40
2019,04,07,07,52,6.40
2019,04,07,07,53,6.40
2019,04,07,07,54,6.40
2019,04,07,07,55,3.20
2019,04,07,07,56,3.20
2019,04,07,07,57,6.40
2019,04,07,07,58,6.40
2019,04,07,07,59,8.10
2019,04,07,08,00,6.40
2019,04,07,08,01,6.40
2019,04,07,08,02,8.10
2019,04,07,08,03,8.10
2019,04,07,08,04,8.10
2019,04,07,08,05,9.60
2019,04,07,08,06,9.60
2019,04,07,08,07,9.60
2019,04,07,08,08,11.30
2019,04,07,08,09,8.10
2019,04,07,08,10,8.10
2019,04,07,08,11,8.10
2019,04,07,08,12,6.40
2019,04,07,08,13,8.10
2019,04,07,08,14,3.20
2019,04,07,08,15,8.10
2019,04,07,08,16,8.10
2019,04,07,08,17,8.10
2019,04,07,08,18,6.40
2019,04,07,08,19,6.40
2019,04,07,08,20,4.80
2019,04,07,08,21,6.40
2019,04,07,08,22,6.40
2019,04,07,08,23,8.10
2019,04,07,08,24,9.60
2019,04,07,08,25,4.80
2019,04,07,08,26,6.40
2019,04,07,08,27,6.40
2019,04,07,08,28,8.10
2019,04,07,08,29,8.10
2019,04,07,08,30,8.10
2019,04,07,08,31,9.60
2019,04,07,08,32,8.10
2019,04,07,08,33,8.10
2019,04,07,08,34,8.10
2019,04,07,08,35,9.60
2019,04,07,08,36,11.30
2019,04,07,08,37,8.10
2019,04,07,08,38,4.80
2019,04,07,08,39,6.40
2019,04,07,08,40,8.10
2019,04,07,08,41,6.40
2019,04,07,08,42,1.60
2019,04,07,08,44,3.20
2019,04,07,08,45,3.20
2019,04,07,08,46,3.20
2019,04,07,08,47,1.60
2019,04,07,08,48,3.20
2019,04,07,08,49,4.80
2019,04,07,08,50,4.80
2019,04,07,08,51,6.40
2019,04,07,08,52,4.80
2019,04,07,08,53,3.20
2019,04,07,08,54,1.60
2019,04,07,08,55,3.20
2019,04,07,08,56,1.60
2019,04,07,08,57,6.40
2019,04,07,08,58,4.80
2019,04,07,09,00,1.60
2019,04,07,09,01,3.20
2019,04,07,09,02,1.60
2019,04,07,09,03,6.40
2019,04,07,09,04,8.10
2019,04,07,09,05,6.40
2019,04,07,09,06,6.40
2019,04,07,09,07,6.40
2019,04,07,09,08,4.80
2019,04,07,09,09,6.40
2019,04,07,09,10,8.10
2019,04,07,09,11,8.10
2019,04,07,09,12,12.90
2019,04,07,09,13,8.10
2019,04,07,09,14,8.10
2019,04,07,09,15,8.10
2019,04,07,09,16,8.10
2019,04,07,09,17,6.40
2019,04,07,09,18,6.40
2019,04,07,09,19,6.40
2019,04,07,09,20,6.40
2019,04,07,09,21,6.40
2019,04,07,09,22,6.40
2019,04,07,09,23,3.20
2019,04,07,09,24,4.80
2019,04,07,09,25,4.80
2019,04,07,09,26,3.20
2019,04,07,09,27,4.80
2019,04,07,09,28,3.20
2019,04,07,09,30,6.40
2019,04,07,09,31,3.20
2019,04,07,09,32,4.80
2019,04,07,09,33,4.80
2019,04,07,09,34,6.40
2019,04,07,09,35,3.20
2019,04,07,09,36,3.20
2019,04,07,09,37,4.80
2019,04,07,09,38,6.40
2019,04,07,09,39,4.80
2019,04,07,09,40,6.40
2019,04,07,09,41,6.40
2019,04,07,09,42,4.80
2019,04,07,09,43,6.40
2019,04,07,09,44,6.40
2019,04,07,09,45,8.10
2019,04,07,09,46,6.40
2019,04,07,09,47,8.10
2019,04,07,09,48,8.10
2019,04,07,09,49,8.10
2019,04,07,09,50,4.80
2019,04,07,09,51,8.10
2019,04,07,09,52,8.10
2019,04,07,09,53,11.30
2019,04,07,09,54,14.50
2019,04,07,09,55,9.60
2019,04,07,09,56,9.60
2019,04,07,09,57,9.60
2019,04,07,09,58,6.40
2019,04,07,09,59,12.90
2019,04,07,10,00,11.30
2019,04,07,10,01,12.90
2019,04,07,10,02,17.70
2019,04,07,10,03,11.30
2019,04,07,10,04,9.60
2019,04,07,10,05,11.30
2019,04,07,10,06,12.90
2019,04,07,10,07,11.30
2019,04,07,10,08,12.90
2019,04,07,10,09,9.60
2019,04,07,10,10,16.10
2019,04,07,10,11,17.70
2019,04,07,10,12,9.60
2019,04,07,10,13,8.10
2019,04,07,10,14,9.60
2019,04,07,10,15,9.60
2019,04,07,10,16,9.60
2019,04,07,10,17,14.50
2019,04,07,10,18,12.90
2019,04,07,10,19,14.50
2019,04,07,10,20,17.70
2019,04,07,10,21,11.30
2019,04,07,10,22,12.90
2019,04,07,10,23,9.60
2019,04,07,10,24,8.10
2019,04,07,10,25,9.60
2019,04,07,10,26,9.60
2019,04,07,10,27,11.30
2019,04,07,10,28,11.30
2019,04,07,10,29,8.10
2019,04,07,10,30,9.60
2019,04,07,10,31,8.10
2019,04,07,10,32,9.60
2019,04,07,10,33,9.60
2019,04,07,10,34,9.60
2019,04,07,10,35,12.90
2019,04,07,10,36,11.30
2019,04,07,10,37,14.50
2019,04,07,10,38,9.60
2019,04,07,10,39,20.90
2019,04,07,10,40,12.90
2019,04,07,10,41,14.50
2019,04,07,10,42,11.30
2019,04,07,10,43,12.90
2019,04,07,10,44,12.90
2019,04,07,10,45,19.30
2019,04,07,10,46,12.90
2019,04,07,10,47,16.10
2019,04,07,10,48,9.60
2019,04,07,10,49,9.60
2019,04,07,10,50,11.30
2019,04,07,10,51,12.90
2019,04,07,10,52,16.10
2019,04,07,10,53,16.10
2019,04,07,10,54,14.50
2019,04,07,10,55,16.10
2019,04,07,10,56,12.90
2019,04,07,10,57,14.50
2019,04,07,10,58,11.30
2019,04,07,10,59,16.10
2019,04,07,11,00,17.70
2019,04,07,11,01,20.90
2019,04,07,11,02,17.70
2019,04,07,11,03,22.50
2019,04,07,11,04,14.50
2019,04,07,11,05,17.70
2019,04,07,11,06,17.70
2019,04,07,11,07,19.30
2019,04,07,11,08,12.90
2019,04,07,11,09,16.10
2019,04,07,11,10,16.10
2019,04,07,11,11,20.90
2019,04,07,11,12,20.90
2019,04,07,11,13,14.50
2019,04,07,11,14,19.30
2019,04,07,11,15,14.50
2019,04,07,11,16,11.30
2019,04,07,11,17,19.30
2019,04,07,11,18,14.50
2019,04,07,11,19,16.10
2019,04,07,11,20,19.30
2019,04,07,11,21,14.50
2019,04,07,11,22,9.60
2019,04,07,11,23,9.60
2019,04,07,11,24,12.90
2019,04,07,11,25,9.60
2019,04,07,11,26,8.10
2019,04,07,11,27,11.30
2019,04,07,11,28,14.50
2019,04,07,11,29,11.30
2019,04,07,11,30,12.90
2019,04,07,11,31,9.60
2019,04,07,11,32,9.60
2019,04,07,11,33,14.50
2019,04,07,11,34,8.10
2019,04,07,11,35,14.50
2019,04,07,11,36,11.30
2019,04,07,11,37,6.40
2019,04,07,11,38,9.60
2019,04,07,11,39,8.10
2019,04,07,11,40,6.40
2019,04,07,11,41,11.30
2019,04,07,11,42,14.50
2019,04,07,11,43,11.30
2019,04,07,11,44,11.30
2019,04,07,11,45,12.90
2019,04,07,11,46,11.30
2019,04,07,11,47,11.30
2019,04,07,11,48,9.60
2019,04,07,11,49,8.10
2019,04,07,11,50,9.60
2019,04,07,11,51,6.40
2019,04,07,11,52,6.40
2019,04,07,11,53,9.60
2019,04,07,11,54,12.90
2019,04,07,11,55,12.90
2019,04,07,11,56,12.90
2019,04,07,11,57,12.90
2019,04,07,11,58,9.60
2019,04,07,11,59,8.10
2019,04,07,12,00,8.10
2019,04,07,12,01,11.30
2019,04,07,12,02,16.10
2019,04,07,12,03,11.30
2019,04,07,12,04,11.30
2019,04,07,12,05,8.10
2019,04,07,12,06,12.90
2019,04,07,12,07,9.60
2019,04,07,12,08,9.60
2019,04,07,12,09,4.80
2019,04,07,12,10,6.40
2019,04,07,12,11,9.60
2019,04,07,12,12,9.60
2019,04,07,12,13,12.90
2019,04,07,12,14,12.90
2019,04,07,12,15,8.10
2019,04,07,12,16,8.10
2019,04,07,12,17,11.30
2019,04,07,12,18,9.60
2019,04,07,12,19,8.10
2019,04,07,12,20,9.60
2019,04,07,12,21,8.10
2019,04,07,12,22,11.30
2019,04,07,12,23,16.10
2019,04,07,12,24,17.70
2019,04,07,12,25,12.90
2019,04,07,12,26,19.30
2019,04,07,12,27,12.90
2019,04,07,12,28,16.10
2019,04,07,12,29,20.90
2019,04,07,12,30,12.90
2019,04,07,12,31,14.50
2019,04,07,12,32,19.30
2019,04,07,12,33,16.10
2019,04,07,12,34,14.50
2019,04,07,12,35,16.10
2019,04,07,12,36,14.50
2019,04,07,12,37,16.10
2019,04,07,12,38,14.50
2019,04,07,12,39,12.90
2019,04,07,12,40,12.90
2019,04,07,12,41,12.90
2019,04,07,12,42,17.70
2019,04,07,12,43,12.90
2019,04,07,12,44,11.30
2019,04,07,12,45,9.60
2019,04,07,12,46,12.90
2019,04,07,12,47,11.30
2019,04,07,12,48,12.90
2019,04,07,12,49,11.30
2019,04,07,12,50,8.10
2019,04,07,12,51,8.10
2019,04,07,12,52,6.40
2019,04,07,12,53,9.60
2019,04,07,12,54,9.60
2019,04,07,12,55,8.10
2019,04,07,12,56,8.10
2019,04,07,12,57,11.30
2019,04,07,12,58,9.60
2019,04,07,12,59,9.60
2019,04,07,13,00,17.70
2019,04,07,13,01,14.50
2019,04,07,13,02,12.90
2019,04,07,13,03,12.90
2019,04,07,13,04,19.30
2019,04,07,13,05,12.90
2019,04,07,13,06,12.90
2019,04,07,13,07,14.50
2019,04,07,13,08,14.50
2019,04,07,13,09,14.50
2019,04,07,13,10,19.30
2019,04,07,13,11,12.90
2019,04,07,13,12,17.70
2019,04,07,13,13,12.90
2019,04,07,13,14,12.90
2019,04,07,13,15,16.10
2019,04,07,13,16,19.30
2019,04,07,13,17,17.70
2019,04,07,13,18,19.30
2019,04,07,13,19,12.90
2019,04,07,13,20,22.50
2019,04,07,13,21,17.70
2019,04,07,13,22,19.30
2019,04,07,13,23,20.90
2019,04,07,13,24,19.30
2019,04,07,13,25,19.30
2019,04,07,13,26,19.30
2019,04,07,13,27,16.10
2019,04,07,13,28,12.90
2019,04,07,13,29,14.50
2019,04,07,13,30,17.70
2019,04,07,13,31,19.30
2019,04,07,13,32,16.10
2019,04,07,13,33,17.70
2019,04,07,13,34,17.70
2019,04,07,13,35,17.70
2019,04,07,13,36,19.30
2019,04,07,13,37,17.70
2019,04,07,13,38,17.70
2019,04,07,13,39,17.70
2019,04,07,13,40,17.70
2019,04,07,13,41,17.70
2019,04,07,13,42,19.30
2019,04,07,13,43,16.10
2019,04,07,13,44,20.90
2019,04,07,13,45,16.10
2019,04,07,13,46,16.10
2019,04,07,13,47,19.30
2019,04,07,13,48,16.10
2019,04,07,13,49,16.10
2019,04,07,13,50,14.50
2019,04,07,13,51,14.50
2019,04,07,13,52,12.90
2019,04,07,13,53,14.50
2019,04,07,13,54,12.90
2019,04,07,13,55,17.70
2019,04,07,13,56,14.50
2019,04,07,13,57,12.90
2019,04,07,13,58,12.90
2019,04,07,13,59,12.90
2019,04,07,14,00,9.60
2019,04,07,14,01,16.10
2019,04,07,14,02,9.60
2019,04,07,14,03,11.30
2019,04,07,14,04,16.10
2019,04,07,14,05,9.60
2019,04,07,14,06,8.10
2019,04,07,14,07,6.40
2019,04,07,14,08,9.60
2019,04,07,14,09,12.90
2019,04,07,14,10,11.30
2019,04,07,14,11,9.60
2019,04,07,14,12,8.10
2019,04,07,14,13,9.60
2019,04,07,14,14,12.90
2019,04,07,14,15,8.10
2019,04,07,14,16,9.60
2019,04,07,14,17,9.60
2019,04,07,14,18,6.40
2019,04,07,14,19,11.30
2019,04,07,14,20,8.10
2019,04,07,14,21,12.90
2019,04,07,14,22,12.90
2019,04,07,14,23,12.90
2019,04,07,14,24,14.50
2019,04,07,14,25,14.50
2019,04,07,14,26,12.90
2019,04,07,14,27,16.10
2019,04,07,14,28,14.50
2019,04,07,14,29,12.90
2019,04,07,14,30,11.30
2019,04,07,14,31,11.30
2019,04,07,14,32,14.50
2019,04,07,14,33,12.90
2019,04,07,14,34,11.30
2019,04,07,14,35,8.10
2019,04,07,14,36,8.10
2019,04,07,14,37,8.10
2019,04,07,14,38,9.60
2019,04,07,14,39,4.80
2019,04,07,14,40,4.80
2019,04,07,14,41,4.80
2019,04,07,14,42,6.40
2019,04,07,14,43,4.80
2019,04,07,14,44,9.60
2019,04,07,14,45,11.30
2019,04,07,14,46,8.10
2019,04,07,14,47,9.60
2019,04,07,14,48,12.90
2019,04,07,14,49,11.30
2019,04,07,14,50,11.30
2019,04,07,14,51,11.30
2019,04,07,14,52,12.90
2019,04,07,14,53,8.10
2019,04,07,14,54,12.90
2019,04,07,14,55,11.30
2019,04,07,14,56,12.90
2019,04,07,14,57,14.50
2019,04,07,14,58,12.90
2019,04,07,14,59,12.90
2019,04,07,15,00,14.50
2019,04,07,15,01,17.70
2019,04,07,15,02,11.30
2019,04,07,15,03,11.30
2019,04,07,15,04,12.90
2019,04,07,15,05,16.10
2019,04,07,15,06,16.10
2019,04,07,15,07,11.30
2019,04,07,15,08,11.30
2019,04,07,15,09,12.90
2019,04,07,15,10,9.60
2019,04,07,15,11,11.30
2019,04,07,15,12,12.90
2019,04,07,15,13,11.30
2019,04,07,15,14,12.90
2019,04,07,15,15,12.90
2019,04,07,15,16,9.60
2019,04,07,15,17,16.10
2019,04,07,15,18,14.50
2019,04,07,15,19,12.90
2019,04,07,15,20,11.30
2019,04,07,15,21,12.90
2019,04,07,15,22,11.30
2019,04,07,15,23,14.50
2019,04,07,15,24,11.30
2019,04,07,15,25,9.60
2019,04,07,15,26,11.30
2019,04,07,15,27,9.60
2019,04,07,15,28,9.60
2019,04,07,15,29,9.60
2019,04,07,15,30,8.10
2019,04,07,15,31,8.10
2019,04,07,15,32,8.10
2019,04,07,15,33,8.10
2019,04,07,15,34,4.80
2019,04,07,15,35,9.60
2019,04,07,15,36,9.60
2019,04,07,15,37,11.30
2019,04,07,15,38,9.60
2019,04,07,15,39,11.30
2019,04,07,15,40,8.10
2019,04,07,15,41,4.80
2019,04,07,15,42,3.20
2019,04,07,15,43,3.20
2019,04,07,15,44,8.10
2019,04,07,15,45,6.40
2019,04,07,15,46,6.40
2019,04,07,15,47,9.60
2019,04,07,15,48,11.30
2019,04,07,15,49,11.30
2019,04,07,15,50,6.40
2019,04,07,15,51,8.10
2019,04,07,15,52,8.10
2019,04,07,15,53,11.30
2019,04,07,15,54,8.10
2019,04,07,15,55,6.40
2019,04,07,15,56,9.60
2019,04,07,15,57,6.40
2019,04,07,15,58,3.20
2019,04,07,15,59,3.20
2019,04,07,16,00,3.20
2019,04,07,16,01,6.40
2019,04,07,16,02,6.40
2019,04,07,16,03,8.10
2019,04,07,16,04,6.40
2019,04,07,16,05,1.60
2019,04,07,16,06,4.80
2019,04,07,16,07,1.60
2019,04,07,16,08,1.60
2019,04,07,16,09,1.60
2019,04,07,16,10,1.60
2019,04,07,16,11,1.60
2019,04,07,16,12,1.60
2019,04,07,16,13,1.60
2019,04,07,16,14,6.40
2019,04,07,16,15,6.40
2019,04,07,16,16,3.20
2019,04,07,16,17,8.10
2019,04,07,16,18,6.40
2019,04,07,16,19,3.20
2019,04,07,16,20,3.20
2019,04,07,16,21,3.20
2019,04,07,16,22,4.80
2019,04,07,16,23,3.20
2019,04,07,16,26,3.20
2019,04,07,16,27,3.20
2019,04,07,16,28,3.20
2019,04,07,16,29,8.10
2019,04,07,16,30,8.10
2019,04,07,16,31,6.40
2019,04,07,16,32,8.10
2019,04,07,16,33,1.60
2019,04,07,16,34,6.40
2019,04,07,16,35,4.80
2019,04,07,16,36,6.40
2019,04,07,16,37,3.20
2019,04,07,16,38,8.10
2019,04,07,16,39,6.40
2019,04,07,16,40,11.30
2019,04,07,16,41,9.60
2019,04,07,16,42,12.90
2019,04,07,16,43,8.10
2019,04,07,16,44,9.60
2019,04,07,16,45,9.60
2019,04,07,16,46,4.80
2019,04,07,16,47,4.80
2019,04,07,16,48,6.40
2019,04,07,16,49,3.20
2019,04,07,16,50,11.30
2019,04,07,16,51,6.40
2019,04,07,16,52,1.60
2019,04,07,16,53,4.80
2019,04,07,16,54,8.10
2019,04,07,16,55,9.60
2019,04,07,16,56,4.80
2019,04,07,16,57,4.80
2019,04,07,16,58,4.80
2019,04,07,16,59,4.80
2019,04,07,17,00,6.40
2019,04,07,17,01,4.80
2019,04,07,17,02,8.10
2019,04,07,17,03,6.40
2019,04,07,17,04,3.20
2019,04,07,17,05,6.40
2019,04,07,17,06,4.80
2019,04,07,17,07,9.60
2019,04,07,17,08,4.80
2019,04,07,17,09,4.80
2019,04,07,17,10,3.20
2019,04,07,17,11,3.20
2019,04,07,17,12,4.80
2019,04,07,17,13,3.20
2019,04,07,17,14,9.60
2019,04,07,17,15,12.90
2019,04,07,17,16,11.30
2019,04,07,17,17,8.10
2019,04,07,17,18,8.10
2019,04,07,17,19,8.10
2019,04,07,17,20,1.60
2019,04,07,17,21,3.20
2019,04,07,17,22,8.10
2019,04,07,17,23,6.40
2019,04,07,17,24,6.40
2019,04,07,17,25,6.40
2019,04,07,17,26,9.60
2019,04,07,17,27,8.10
2019,04,07,17,28,4.80
2019,04,07,17,29,6.40
2019,04,07,17,30,4.80
2019,04,07,17,31,4.80
2019,04,07,17,32,4.80
2019,04,07,17,33,4.80
2019,04,07,17,34,6.40
2019,04,07,17,35,6.40
2019,04,07,17,36,8.10
2019,04,07,17,37,8.10
2019,04,07,17,38,9.60
2019,04,07,17,39,8.10
2019,04,07,17,40,6.40
2019,04,07,17,41,8.10
2019,04,07,17,42,6.40
2019,04,07,17,43,6.40
2019,04,07,17,44,6.40
2019,04,07,17,45,6.40
2019,04,07,17,46,6.40
2019,04,07,17,47,4.80
2019,04,07,17,48,3.20
2019,04,07,17,49,3.20
2019,04,07,17,50,3.20
2019,04,07,17,51,4.80
2019,04,07,17,52,4.80
2019,04,07,17,53,6.40
2019,04,07,17,54,8.10
2019,04,07,17,55,4.80
2019,04,07,17,56,8.10
2019,04,07,17,57,4.80
2019,04,07,17,58,6.40
2019,04,07,17,59,6.40
2019,04,07,18,00,4.80
2019,04,07,18,01,1.60
2019,04,07,18,02,6.40
2019,04,07,18,03,3.20
2019,04,07,18,04,4.80
2019,04,07,18,05,4.80
2019,04,07,18,06,6.40
2019,04,07,18,07,6.40
2019,04,07,18,08,6.40
2019,04,07,18,09,6.40
2019,04,07,18,10,8.10
2019,04,07,18,11,8.10
2019,04,07,18,12,8.10
2019,04,07,18,13,4.80
2019,04,07,18,14,4.80
2019,04,07,18,15,4.80
2019,04,07,18,16,4.80
2019,04,07,18,17,4.80
2019,04,07,18,18,6.40
2019,04,07,18,19,6.40
2019,04,07,18,20,1.60
2019,04,07,18,21,6.40
2019,04,07,18,22,8.10
2019,04,07,18,23,9.60
2019,04,07,18,24,8.10
2019,04,07,18,25,8.10
2019,04,07,18,26,6.40
2019,04,07,18,27,6.40
2019,04,07,18,28,4.80
2019,04,07,18,29,8.10
2019,04,07,18,30,8.10
2019,04,07,18,31,6.40
2019,04,07,18,32,6.40
2019,04,07,18,33,8.10
2019,04,07,18,34,8.10
2019,04,07,18,35,6.40
2019,04,07,18,36,6.40
2019,04,07,18,37,8.10
2019,04,07,18,38,6.40
2019,04,07,18,39,6.40
2019,04,07,18,40,4.80
2019,04,07,18,41,4.80
2019,04,07,18,42,4.80
2019,04,07,18,43,6.40
2019,04,07,18,44,6.40
2019,04,07,18,45,4.80
2019,04,07,18,46,3.20
2019,04,07,18,47,3.20
2019,04,07,18,48,4.80
2019,04,07,18,49,4.80
2019,04,07,18,50,3.20
2019,04,07,18,51,3.20
2019,04,07,18,52,4.80
2019,04,07,18,53,3.20
2019,04,07,18,54,1.60
2019,04,07,18,55,4.80
2019,04,07,18,56,4.80
2019,04,07,18,57,4.80
2019,04,07,18,58,3.20
2019,04,07,18,59,6.40
2019,04,07,19,00,8.10
2019,04,07,19,01,8.10
2019,04,07,19,02,8.10
2019,04,07,19,03,6.40
2019,04,07,19,04,8.10
2019,04,07,19,05,8.10
2019,04,07,19,06,4.80
2019,04,07,19,07,4.80
2019,04,07,19,08,4.80
2019,04,07,19,09,4.80
2019,04,07,19,10,6.40
2019,04,07,19,11,6.40
2019,04,07,19,12,4.80
2019,04,07,19,13,1.60
2019,04,07,19,14,1.60
2019,04,07,19,15,3.20
2019,04,07,19,16,4.80
2019,04,07,19,17,1.60
2019,04,07,19,18,4.80
2019,04,07,19,19,1.60
2019,04,07,19,20,3.20
2019,04,07,19,21,4.80
2019,04,07,19,22,3.20
2019,04,07,19,23,3.20
2019,04,07,19,24,3.20
2019,04,07,19,25,3.20
2019,04,07,19,26,3.20
2019,04,07,19,27,1.60
2019,04,07,19,28,3.20
2019,04,07,19,29,3.20
2019,04,07,19,30,1.60
2019,04,07,19,31,3.20
2019,04,07,19,32,1.60
2019,04,07,19,33,3.20
2019,04,07,19,34,4.80
2019,04,07,19,35,6.40
2019,04,07,19,36,4.80
2019,04,07,19,37,4.80
2019,04,07,19,38,4.80
2019,04,07,19,39,4.80
2019,04,07,19,40,6.40
2019,04,07,19,41,6.40
2019,04,07,19,42,6.40
2019,04,07,19,43,4.80
2019,04,07,19,44,3.20
2019,04,07,19,45,3.20
2019,04,07,19,46,1.60
2019,04,07,19,47,3.20
2019,04,07,19,48,3.20
2019,04,07,19,49,4.80
2019,04,07,19,50,1.60
2019,04,07,19,52,1.60
2019,04,07,19,53,1.60
2019,04,07,19,58,3.20
2019,04,07,19,59,4.80
2019,04,07,20,00,4.80
2019,04,07,20,01,3.20
2019,04,07,20,02,6.40
2019,04,07,20,03,6.40
2019,04,07,20,04,3.20
2019,04,07,20,05,1.60
2019,04,07,20,06,3.20
2019,04,07,20,12,3.20
2019,04,07,20,13,4.80
2019,04,07,20,14,3.20
2019,04,07,20,15,4.80
2019,04,07,20,16,4.80
2019,04,07,20,17,4.80
2019,04,07,20,18,1.60
2019,04,07,20,19,6.40
2019,04,07,20,20,6.40
2019,04,07,20,21,9.60
2019,04,07,20,22,8.10
2019,04,07,20,23,6.40
2019,04,07,20,24,8.10
2019,04,07,20,25,6.40
2019,04,07,20,26,3.20
2019,04,07,20,27,1.60
2019,04,07,20,28,1.60
2019,04,07,20,29,1.60
2019,04,07,20,30,3.20
2019,04,07,20,31,3.20
2019,04,07,20,32,1.60
2019,04,07,20,33,3.20
2019,04,07,20,34,1.60
2019,04,07,20,35,3.20